EJA303 KAPA-KSUS

Flight info

Callsign EJA303
Flight time N/A
Altitude 37000
Route KAPA TXC V4 GLD J80 MCI V4 YOJCO KSUS
Aircraft C700/M-V/N

Departure

Time 2026-05-06 21:03
Airport Centennial Airport (KAPA)

Arrival

Time N/A
Airport Spirit of St Louis Airport (KSUS)
Time Latitude Longitude Altitude Speed Heading
2026-05-06 20:37 39.58297 -104.84910 5799 ft 0 kts 93°
2026-05-06 20:52 39.58294 -104.84907 5799 ft 0 kts 142°
2026-05-06 20:52 39.58291 -104.84908 5799 ft 2 kts 178°
2026-05-06 20:52 39.58248 -104.84929 5801 ft 11 kts 221°
2026-05-06 20:52 39.58210 -104.84997 5805 ft 9 kts 177°
2026-05-06 20:53 39.58155 -104.84993 5804 ft 7 kts 180°
2026-05-06 20:53 39.58110 -104.84994 5805 ft 6 kts 181°
2026-05-06 20:53 39.58069 -104.84992 5809 ft 6 kts 178°
2026-05-06 20:53 39.58017 -104.84989 5810 ft 8 kts 176°
2026-05-06 20:54 39.57953 -104.84983 5807 ft 10 kts 177°
2026-05-06 20:54 39.57886 -104.84980 5814 ft 9 kts 179°
2026-05-06 20:54 39.57831 -104.84978 5813 ft 7 kts 178°
2026-05-06 20:54 39.57785 -104.84976 5820 ft 6 kts 178°
2026-05-06 20:55 39.57744 -104.84975 5818 ft 7 kts 178°
2026-05-06 20:55 39.57690 -104.84972 5824 ft 9 kts 178°
2026-05-06 20:55 39.57617 -104.84970 5829 ft 12 kts 179°
2026-05-06 20:55 39.57527 -104.84966 5828 ft 14 kts 177°
2026-05-06 20:56 39.57433 -104.84960 5835 ft 13 kts 178°
2026-05-06 20:56 39.57336 -104.84957 5840 ft 15 kts 178°
2026-05-06 20:56 39.57216 -104.84952 5842 ft 19 kts 178°
2026-05-06 20:56 39.57083 -104.84945 5848 ft 18 kts 178°
2026-05-06 20:57 39.56966 -104.84940 5852 ft 17 kts 178°
2026-05-06 20:57 39.56848 -104.84935 5851 ft 17 kts 178°
2026-05-06 20:57 39.56730 -104.84929 5853 ft 16 kts 178°
2026-05-06 20:57 39.56634 -104.84924 5863 ft 12 kts 178°
2026-05-06 20:58 39.56561 -104.84921 5860 ft 9 kts 178°
2026-05-06 20:58 39.56498 -104.84918 5867 ft 9 kts 178°
2026-05-06 20:58 39.56436 -104.84915 5862 ft 9 kts 177°
2026-05-06 20:58 39.56372 -104.84911 5874 ft 10 kts 178°
2026-05-06 20:59 39.56301 -104.84909 5869 ft 10 kts 177°
2026-05-06 20:59 39.56222 -104.84904 5874 ft 13 kts 178°
2026-05-06 20:59 39.56107 -104.84900 5878 ft 20 kts 178°
2026-05-06 20:59 39.55966 -104.84894 5883 ft 20 kts 178°
2026-05-06 21:00 39.55879 -104.84890 5888 ft 18 kts 177°
2026-05-06 21:00 39.55760 -104.84883 5891 ft 16 kts 178°
2026-05-06 21:00 39.55699 -104.84887 5890 ft 0 kts 208°
2026-05-06 21:00 39.55687 -104.84900 5890 ft 0 kts 234°
2026-05-06 21:01 39.55685 -104.84907 5890 ft 4 kts 253°
2026-05-06 21:01 39.55679 -104.84965 5890 ft 15 kts 268°
2026-05-06 21:02 39.55773 -104.85027 5891 ft 22 kts
2026-05-06 21:02 39.56099 -104.85041 5879 ft 83 kts 358°
2026-05-06 21:02 39.56922 -104.85080 5852 ft 150 kts 357°
2026-05-06 21:02 39.58089 -104.85088 6222 ft 181 kts 358°
2026-05-06 21:03 39.59296 -104.85709 6665 ft 189 kts 320°
2026-05-06 21:03 39.60248 -104.86842 7044 ft 189 kts 317°
2026-05-06 21:03 39.61254 -104.88031 7435 ft 200 kts 317°
2026-05-06 21:03 39.62291 -104.89250 7830 ft 201 kts 318°
2026-05-06 21:04 39.63347 -104.90485 8001 ft 211 kts 317°
2026-05-06 21:04 39.64447 -104.91775 8006 ft 213 kts 317°
2026-05-06 21:04 39.65554 -104.92909 8261 ft 195 kts 336°
2026-05-06 21:04 39.66831 -104.92957 8553 ft 191 kts 24°
2026-05-06 21:05 39.67836 -104.91806 8944 ft 202 kts 61°
2026-05-06 21:05 39.68419 -104.90145 9526 ft 204 kts 66°
2026-05-06 21:05 39.68999 -104.88433 10083 ft 211 kts 65°
2026-05-06 21:05 39.69607 -104.86692 10583 ft 212 kts 65°
2026-05-06 21:06 39.70220 -104.84945 11071 ft 212 kts 64°
2026-05-06 21:06 39.70833 -104.83197 11569 ft 214 kts 64°
2026-05-06 21:06 39.71450 -104.81433 12078 ft 216 kts 63°
2026-05-06 21:06 39.72077 -104.79644 12598 ft 219 kts 63°
2026-05-06 21:07 39.72709 -104.77836 13127 ft 221 kts 63°
2026-05-06 21:07 39.73350 -104.76003 13667 ft 223 kts 62°
2026-05-06 21:07 39.73996 -104.74153 14185 ft 226 kts 62°
2026-05-06 21:07 39.74650 -104.72280 14669 ft 229 kts 62°
2026-05-06 21:08 39.75313 -104.70380 15165 ft 232 kts 62°
2026-05-06 21:08 39.75977 -104.68474 15672 ft 236 kts 61°
2026-05-06 21:08 39.76658 -104.66518 16162 ft 239 kts 61°
2026-05-06 21:08 39.77378 -104.64461 16234 ft 255 kts 61°
2026-05-06 21:09 39.78104 -104.62364 16218 ft 255 kts 62°
2026-05-06 21:09 39.78822 -104.60287 16217 ft 248 kts 61°
2026-05-06 21:09 39.79532 -104.58249 16210 ft 249 kts 61°
2026-05-06 21:09 39.80269 -104.56140 16381 ft 260 kts 61°
2026-05-06 21:10 39.81032 -104.53941 16943 ft 274 kts 61°
2026-05-06 21:10 39.81827 -104.51646 17497 ft 290 kts 61°
2026-05-06 21:10 39.82678 -104.49191 18065 ft 306 kts 61°
2026-05-06 21:10 39.83577 -104.46594 18620 ft 324 kts 62°
2026-05-06 21:11 39.84525 -104.43849 19124 ft 341 kts 62°
2026-05-06 21:11 39.85417 -104.40850 19316 ft 372 kts 72°
2026-05-06 21:11 39.85791 -104.37474 20119 ft 378 kts 85°
2026-05-06 21:11 39.85665 -104.34035 20916 ft 385 kts 93°
2026-05-06 21:12 39.85420 -104.30544 21701 ft 388 kts 93°
2026-05-06 21:12 39.85179 -104.27030 22500 ft 392 kts 93°
2026-05-06 21:12 39.84943 -104.23476 23281 ft 396 kts 92°
2026-05-06 21:12 39.84700 -104.19891 23976 ft 401 kts 94°
2026-05-06 21:13 39.84450 -104.16292 24516 ft 407 kts 94°
2026-05-06 21:13 39.83894 -104.12664 25222 ft 411 kts 105°
2026-05-06 21:13 39.82986 -104.09127 25877 ft 414 kts 107°
2026-05-06 21:13 39.82063 -104.05566 26547 ft 417 kts 106°
2026-05-06 21:14 39.81141 -104.01977 27205 ft 420 kts 105°
2026-05-06 21:14 39.80212 -103.98363 27874 ft 423 kts 105°
2026-05-06 21:14 39.79270 -103.94724 28542 ft 426 kts 105°
2026-05-06 21:14 39.78319 -103.91060 29178 ft 429 kts 104°
2026-05-06 21:15 39.77361 -103.87366 29834 ft 433 kts 104°
2026-05-06 21:15 39.76396 -103.83644 30419 ft 438 kts 105°
2026-05-06 21:15 39.75414 -103.79870 30800 ft 444 kts 105°
2026-05-06 21:15 39.74502 -103.76025 31271 ft 446 kts 99°
2026-05-06 21:16 39.74052 -103.72031 31733 ft 447 kts 92°
2026-05-06 21:16 39.73761 -103.67992 32179 ft 451 kts 92°
2026-05-06 21:16 39.73458 -103.63911 32609 ft 456 kts 92°
2026-05-06 21:16 39.73143 -103.59781 33043 ft 461 kts 92°
2026-05-06 21:17 39.72827 -103.55620 33469 ft 465 kts 92°
2026-05-06 21:17 39.72510 -103.51419 33891 ft 469 kts 92°
2026-05-06 21:17 39.72188 -103.47171 34248 ft 476 kts 93°
2026-05-06 21:17 39.71857 -103.42863 34510 ft 482 kts 94°
2026-05-06 21:18 39.71520 -103.38518 34857 ft 486 kts 94°
2026-05-06 21:18 39.71185 -103.34181 35178 ft 490 kts 94°
2026-05-06 21:18 39.70842 -103.29755 35502 ft 495 kts 94°
2026-05-06 21:18 39.70493 -103.25283 35710 ft 501 kts 95°
2026-05-06 21:19 39.70137 -103.20765 36118 ft 502 kts 95°
2026-05-06 21:19 39.69779 -103.16250 36538 ft 503 kts 95°
2026-05-06 21:19 39.69421 -103.11720 36928 ft 505 kts 96°
2026-05-06 21:19 39.69058 -103.07161 37174 ft 510 kts 96°
2026-05-06 21:20 39.68687 -103.02538 37177 ft 518 kts 96°
2026-05-06 21:20 39.67937 -102.93259 37177 ft 512 kts 96°
2026-05-06 21:21 39.67198 -102.84192 37165 ft 504 kts 96°
2026-05-06 21:21 39.66450 -102.75111 37181 ft 507 kts 96°
2026-05-06 21:22 39.65687 -102.65939 37179 ft 515 kts 96°
2026-05-06 21:22 39.64911 -102.56696 37180 ft 514 kts 96°
2026-05-06 21:23 39.64132 -102.47515 37170 ft 510 kts 96°
2026-05-06 21:23 39.63352 -102.38397 37172 ft 508 kts 97°
2026-05-06 21:24 39.62560 -102.29236 37174 ft 513 kts 97°
2026-05-06 21:24 39.61754 -102.19987 37175 ft 516 kts 97°
2026-05-06 21:25 39.60946 -102.10805 37165 ft 514 kts 97°
2026-05-06 21:25 39.60129 -102.01598 37166 ft 514 kts 97°
2026-05-06 21:26 39.59301 -101.92366 37166 ft 516 kts 98°
2026-05-06 21:26 39.58463 -101.83098 37177 ft 518 kts 98°
2026-05-06 21:27 39.57614 -101.73797 37180 ft 519 kts 98°
2026-05-06 21:27 39.56759 -101.64509 37173 ft 518 kts 98°
2026-05-06 21:28 39.55901 -101.55277 37172 ft 518 kts 98°
2026-05-06 21:28 39.55032 -101.45996 37176 ft 518 kts 98°
2026-05-06 21:29 39.54327 -101.36715 37182 ft 518 kts 95°
2026-05-06 21:29 39.53882 -101.27399 37182 ft 518 kts 95°
2026-05-06 21:30 39.53386 -101.18126 37180 ft 519 kts 95°
2026-05-06 21:30 39.52908 -101.08798 37179 ft 520 kts 95°
2026-05-06 21:31 39.52404 -100.99442 37182 ft 520 kts 95°
2026-05-06 21:31 39.51902 -100.90075 37183 ft 522 kts 95°
2026-05-06 21:32 39.51387 -100.80692 37174 ft 523 kts 96°
2026-05-06 21:32 39.50602 -100.66609 37182 ft 525 kts 96°
2026-05-06 21:33 39.50065 -100.57172 37189 ft 523 kts 96°
2026-05-06 21:33 39.49523 -100.47766 37189 ft 523 kts 96°
2026-05-06 21:34 39.48977 -100.38425 37185 ft 523 kts 96°
2026-05-06 21:34 39.48420 -100.29035 37189 ft 523 kts 96°
2026-05-06 21:35 39.47857 -100.19644 37194 ft 523 kts 97°
2026-05-06 21:35 39.47281 -100.10215 37186 ft 527 kts 97°
2026-05-06 21:36 39.46701 -100.00787 37193 ft 530 kts 97°
2026-05-06 21:36 39.46106 -99.91281 37189 ft 529 kts 97°
2026-05-06 21:37 39.45507 -99.81811 37181 ft 527 kts 97°
2026-05-06 21:37 39.44897 -99.72330 37183 ft 529 kts 98°
2026-05-06 21:38 39.44279 -99.62812 37186 ft 532 kts 98°
2026-05-06 21:38 39.43649 -99.53255 37191 ft 533 kts 98°
2026-05-06 21:39 39.43019 -99.43772 37180 ft 531 kts 98°
2026-05-06 21:39 39.42374 -99.34236 37166 ft 533 kts 98°
2026-05-06 21:40 39.41716 -99.24613 37174 ft 540 kts 98°
2026-05-06 21:40 39.41049 -99.14942 37176 ft 539 kts 98°
2026-05-06 21:41 39.40376 -99.05336 37157 ft 535 kts 99°
2026-05-06 21:41 39.39694 -98.95729 37157 ft 538 kts 99°
2026-05-06 21:42 39.38875 -98.86167 37151 ft 536 kts 106°
2026-05-06 21:42 39.37884 -98.81540 36672 ft 530 kts 116°
2026-05-06 21:42 39.36367 -98.77279 36178 ft 511 kts 127°
2026-05-06 21:43 39.34414 -98.73557 35692 ft 488 kts 138°
2026-05-06 21:43 39.32115 -98.70475 35224 ft 465 kts 149°
2026-05-06 21:43 39.29568 -98.68096 34718 ft 441 kts 160°
2026-05-06 21:43 39.26840 -98.66400 33718 ft 428 kts 171°
2026-05-06 21:44 39.24040 -98.65470 32623 ft 413 kts 182°
2026-05-06 21:44 39.21221 -98.65290 31625 ft 399 kts 193°
2026-05-06 21:44 39.18539 -98.65853 30660 ft 385 kts 204°
2026-05-06 21:44 39.16091 -98.67116 29610 ft 372 kts 215°
2026-05-06 21:45 39.14001 -98.68990 28508 ft 362 kts 227°
2026-05-06 21:45 39.12343 -98.71383 27442 ft 355 kts 238°
2026-05-06 21:45 39.11227 -98.74170 26852 ft 342 kts 252°
2026-05-06 21:45 39.10728 -98.77028 26468 ft 327 kts 263°
2026-05-06 21:46 39.10788 -98.79987 25699 ft 329 kts 276°
2026-05-06 21:46 39.11426 -98.82782 24977 ft 332 kts 289°
2026-05-06 21:46 39.12620 -98.85351 24269 ft 339 kts 302°
2026-05-06 21:46 39.14309 -98.87509 23543 ft 347 kts 315°
2026-05-06 21:47 39.16410 -98.89122 22714 ft 356 kts 328°
2026-05-06 21:47 39.18801 -98.90077 21926 ft 366 kts 342°
2026-05-06 21:47 39.21366 -98.90309 21148 ft 375 kts 355°
2026-05-06 21:47 39.23971 -98.89784 20400 ft 383 kts
2026-05-06 21:48 39.26449 -98.88466 19649 ft 391 kts 26°
2026-05-06 21:48 39.28493 -98.86114 18913 ft 399 kts 49°
2026-05-06 21:48 39.29779 -98.82938 18267 ft 399 kts 71°
2026-05-06 21:48 39.30100 -98.79431 17711 ft 391 kts 94°
2026-05-06 21:49 39.29786 -98.77166 17354 ft 383 kts 107°
2026-05-06 21:49 39.28691 -98.74119 16811 ft 366 kts 128°
2026-05-06 21:49 39.26442 -98.71685 16057 ft 284 kts 163°
2026-05-06 21:49 39.24588 -98.71331 15504 ft 262 kts 190°
2026-05-06 21:50 39.22815 -98.71695 15013 ft 255 kts 197°
2026-05-06 21:50 39.21649 -98.72029 14671 ft 251 kts 198°
2026-05-06 21:50 39.19964 -98.72547 14170 ft 247 kts 199°
2026-05-06 21:50 39.18360 -98.73162 13632 ft 238 kts 213°
2026-05-06 21:51 39.17249 -98.74714 13130 ft 231 kts 251°
2026-05-06 21:51 39.17153 -98.76809 12683 ft 242 kts 283°
2026-05-06 21:51 39.17850 -98.78760 12197 ft 242 kts 308°
2026-05-06 21:51 39.19026 -98.80291 11708 ft 240 kts 315°
2026-05-06 21:52 39.20218 -98.81805 11198 ft 239 kts 313°
2026-05-06 21:52 39.21323 -98.83409 10711 ft 239 kts 309°
2026-05-06 21:52 39.22392 -98.85049 10217 ft 239 kts 310°
2026-05-06 21:52 39.23475 -98.86673 9706 ft 239 kts 310°
2026-05-06 21:53 39.24567 -98.88290 9171 ft 238 kts 310°
2026-05-06 21:53 39.25651 -98.89902 8647 ft 238 kts 310°
2026-05-06 21:53 39.26733 -98.91513 8128 ft 234 kts 310°
2026-05-06 21:53 39.27712 -98.92972 7557 ft 205 kts 310°
2026-05-06 21:54 39.28632 -98.94345 6859 ft 201 kts 310°
2026-05-06 21:54 39.29566 -98.95740 5780 ft 207 kts 310°
2026-05-06 21:54 39.30485 -98.97111 4885 ft 203 kts 310°
2026-05-06 21:54 39.31404 -98.98483 4022 ft 200 kts 310°
2026-05-06 21:55 39.32244 -98.99736 3978 ft 174 kts 309°
2026-05-06 21:55 39.33054 -99.00952 4001 ft 185 kts 309°
2026-05-06 21:55 39.33924 -99.02254 4012 ft 197 kts 310°
2026-05-06 21:55 39.34871 -99.03666 4022 ft 215 kts 310°
2026-05-06 21:56 39.35844 -99.05123 3999 ft 212 kts 310°
2026-05-06 21:56 39.36793 -99.06541 3990 ft 205 kts 309°
2026-05-06 21:56 39.37713 -99.07923 3986 ft 201 kts 310°
2026-05-06 21:56 39.38615 -99.09270 3998 ft 200 kts 309°
2026-05-06 21:57 39.39526 -99.10638 4014 ft 202 kts 309°
2026-05-06 21:57 39.40445 -99.12018 4018 ft 204 kts 309°
2026-05-06 21:57 39.41380 -99.13420 4015 ft 206 kts 309°
2026-05-06 21:57 39.42317 -99.14828 4017 ft 206 kts 309°
2026-05-06 21:58 39.43247 -99.16224 4007 ft 204 kts 309°
2026-05-06 21:58 39.44170 -99.17606 4002 ft 202 kts 309°
2026-05-06 21:58 39.45078 -99.18976 4007 ft 200 kts 309°
2026-05-06 21:58 39.45994 -99.20353 4008 ft 203 kts 309°
2026-05-06 21:59 39.46901 -99.21753 4007 ft 203 kts 304°
2026-05-06 21:59 39.47483 -99.23404 4000 ft 202 kts 284°
2026-05-06 21:59 39.47615 -99.25209 4006 ft 202 kts 265°
2026-05-06 21:59 39.47279 -99.26973 4009 ft 203 kts 247°
2026-05-06 22:00 39.46513 -99.28492 4006 ft 200 kts 229°
2026-05-06 22:00 39.45420 -99.29601 3629 ft 205 kts 210°
2026-05-06 22:00 39.44123 -99.30163 3607 ft 195 kts 192°
2026-05-06 22:00 39.42752 -99.30244 3520 ft 204 kts 183°
2026-05-06 22:01 39.41311 -99.30282 3270 ft 207 kts 184°
2026-05-06 22:01 39.39907 -99.30325 3008 ft 186 kts 184°
2026-05-06 22:01 39.38813 -99.30345 2823 ft 142 kts 184°
2026-05-06 22:01 39.37854 -99.30376 2304 ft 131 kts 185°
2026-05-06 22:02 39.36995 -99.30422 2322 ft 120 kts 184°
2026-05-06 22:02 39.36170 -99.30421 2283 ft 121 kts 184°
2026-05-06 22:02 39.35294 -99.30443 2054 ft 124 kts 184°
2026-05-06 22:02 39.34545 -99.30474 1999 ft 86 kts 180°
2026-05-06 22:03 39.34124 -99.30482 2004 ft 39 kts 181°
2026-05-06 22:03 39.33989 -99.30476 2004 ft 7 kts 149°
2026-05-06 22:03 39.33978 -99.30408 2004 ft 19 kts 76°
2026-05-06 22:03 39.33985 -99.30415 2004 ft 13 kts 240°
2026-05-06 22:04 39.34042 -99.30484 2004 ft 17 kts 358°
2026-05-06 22:04 39.34180 -99.30482 2003 ft 23 kts
2026-05-06 22:04 39.34335 -99.30475 2005 ft 22 kts
2026-05-06 22:04 39.34511 -99.30472 2000 ft 26 kts
2026-05-06 22:05 39.34575 -99.30411 1997 ft 12 kts 88°
2026-05-06 22:05 39.34603 -99.30384 1997 ft 11 kts 15°
2026-05-06 22:05 39.34623 -99.30353 1998 ft 0 kts 92°